Time,TemperatureF,DewpointF,PressureIn,WindDirection,WindDirectionDegrees,WindSpeedMPH,WindSpeedGustMPH,Humidity,HourlyPrecipIn,Conditions,Clouds,dailyrainin,SoftwareType,DateUTC
2013-11-04 00:00:00,25.8,19.6,30.52,WNW,289,0.0,10.0,77,0.00,,,0.00,Wunderground v.1.15,2013-11-04 05:00:00,
2013-11-04 00:05:00,25.7,19.5,30.52,WNW,289,0.0,10.0,77,0.00,,,0.00,Wunderground v.1.15,2013-11-04 05:05:00,
2013-11-04 00:10:00,25.7,19.5,30.52,WNW,289,0.0,10.0,77,0.00,,,0.00,Wunderground v.1.15,2013-11-04 05:10:00,
2013-11-04 00:15:00,25.8,19.6,30.53,WNW,289,0.0,10.0,77,0.00,,,0.00,Wunderground v.1.15,2013-11-04 05:15:00,
2013-11-04 00:20:00,25.8,19.6,30.53,WNW,289,0.0,10.0,77,0.00,,,0.00,Wunderground v.1.15,2013-11-04 05:20:00,
2013-11-04 00:25:00,25.9,19.4,30.53,WNW,289,0.0,10.0,76,0.00,,,0.00,Wunderground v.1.15,2013-11-04 05:25:00,
2013-11-04 00:30:00,26.0,19.5,30.53,WNW,290,0.0,10.0,76,0.00,,,0.00,Wunderground v.1.15,2013-11-04 05:30:00,
2013-11-04 00:34:00,26.0,19.5,30.54,WNW,290,0.0,10.0,76,0.00,,,0.00,Wunderground v.1.15,2013-11-04 05:34:00,
2013-11-04 00:40:00,26.0,19.5,30.54,WNW,290,0.0,10.0,76,0.00,,,0.00,Wunderground v.1.15,2013-11-04 05:40:00,
2013-11-04 00:45:00,26.1,19.3,30.55,WNW,290,0.0,10.0,75,0.00,,,0.00,Wunderground v.1.15,2013-11-04 05:45:00,
2013-11-04 00:50:00,26.2,19.4,30.55,WNW,290,0.0,10.0,75,0.00,,,0.00,Wunderground v.1.15,2013-11-04 05:50:00,
2013-11-04 00:55:00,26.1,19.3,30.56,WNW,290,0.0,10.0,75,0.00,,,0.00,Wunderground v.1.15,2013-11-04 05:55:00,
2013-11-04 01:00:00,26.0,19.2,30.56,WNW,290,0.0,10.0,75,0.00,,,0.00,Wunderground v.1.15,2013-11-04 06:00:00,
2013-11-04 01:10:00,25.8,19.0,30.56,WNW,290,0.0,10.0,75,0.00,,,0.00,Wunderground v.1.15,2013-11-04 06:10:00,
2013-11-04 01:15:00,25.7,18.9,30.56,WNW,290,0.0,10.0,75,0.00,,,0.00,Wunderground v.1.15,2013-11-04 06:15:00,
2013-11-04 01:20:00,25.6,18.8,30.56,WNW,290,0.0,10.0,75,0.00,,,0.00,Wunderground v.1.15,2013-11-04 06:20:00,
2013-11-04 01:25:00,25.7,18.9,30.56,WNW,290,0.0,10.0,75,0.00,,,0.00,Wunderground v.1.15,2013-11-04 06:25:00,
2013-11-04 01:30:00,25.7,18.6,30.57,WNW,290,0.0,10.0,74,0.00,,,0.00,Wunderground v.1.15,2013-11-04 06:30:00,
2013-11-04 01:35:00,25.8,18.7,30.57,WNW,290,0.0,10.0,74,0.00,,,0.00,Wunderground v.1.15,2013-11-04 06:35:00,
2013-11-04 01:40:00,25.8,18.7,30.57,WNW,297,0.0,10.0,74,0.00,,,0.00,Wunderground v.1.15,2013-11-04 06:40:00,
2013-11-04 01:45:00,25.8,18.3,30.57,WNW,297,0.0,10.0,73,0.00,,,0.00,Wunderground v.1.15,2013-11-04 06:45:00,
2013-11-04 01:50:00,25.8,18.7,30.57,WNW,297,0.0,10.0,74,0.00,,,0.00,Wunderground v.1.15,2013-11-04 06:50:00,
2013-11-04 01:55:00,25.8,18.7,30.57,WNW,294,0.0,10.0,74,0.00,,,0.00,Wunderground v.1.15,2013-11-04 06:55:00,
2013-11-04 01:59:00,25.7,18.2,30.57,WNW,295,0.0,10.0,73,0.00,,,0.00,Wunderground v.1.15,2013-11-04 06:59:00,
2013-11-04 02:05:00,25.6,18.5,30.57,WNW,295,0.0,10.0,74,0.00,,,0.00,Wunderground v.1.15,2013-11-04 07:05:00,
2013-11-04 02:10:00,25.5,18.4,30.57,WNW,294,1.0,1.0,74,0.00,,,0.00,Wunderground v.1.15,2013-11-04 07:10:00,
2013-11-04 02:15:00,25.4,18.3,30.57,WNW,294,0.0,10.0,74,0.00,,,0.00,Wunderground v.1.15,2013-11-04 07:15:00,
2013-11-04 02:20:00,25.3,18.5,30.57,WNW,294,0.0,10.0,75,0.00,,,0.00,Wunderground v.1.15,2013-11-04 07:20:00,
2013-11-04 02:25:00,25.1,18.3,30.57,WNW,294,0.0,10.0,75,0.00,,,0.00,Wunderground v.1.15,2013-11-04 07:25:00,
2013-11-04 02:30:00,25.0,18.2,30.57,WNW,294,0.0,10.0,75,0.00,,,0.00,Wunderground v.1.15,2013-11-04 07:30:00,
2013-11-04 02:35:00,24.9,18.1,30.57,WNW,294,0.0,10.0,75,0.00,,,0.00,Wunderground v.1.15,2013-11-04 07:35:00,
2013-11-04 02:40:00,24.8,18.0,30.58,WNW,297,0.0,10.0,75,0.00,,,0.00,Wunderground v.1.15,2013-11-04 07:40:00,
2013-11-04 02:45:00,24.7,18.2,30.58,WNW,297,0.0,10.0,76,0.00,,,0.00,Wunderground v.1.15,2013-11-04 07:45:00,
2013-11-04 02:50:00,24.7,18.2,30.58,WNW,297,0.0,10.0,76,0.00,,,0.00,Wunderground v.1.15,2013-11-04 07:50:00,
2013-11-04 02:55:00,24.6,18.1,30.58,WNW,297,0.0,10.0,76,0.00,,,0.00,Wunderground v.1.15,2013-11-04 07:55:00,
2013-11-04 03:00:00,24.5,18.0,30.58,WNW,297,0.0,10.0,76,0.00,,,0.00,Wunderground v.1.15,2013-11-04 08:00:00,
2013-11-04 03:05:00,24.4,17.9,30.58,WNW,297,0.0,10.0,76,0.00,,,0.00,Wunderground v.1.15,2013-11-04 08:05:00,
2013-11-04 03:15:00,24.3,18.1,30.59,WNW,297,0.0,10.0,77,0.00,,,0.00,Wunderground v.1.15,2013-11-04 08:15:00,
2013-11-04 03:20:00,24.2,18.0,30.59,WNW,297,0.0,10.0,77,0.00,,,0.00,Wunderground v.1.15,2013-11-04 08:20:00,
2013-11-04 03:25:00,24.1,17.9,30.59,WNW,297,0.0,10.0,77,0.00,,,0.00,Wunderground v.1.15,2013-11-04 08:25:00,
2013-11-04 03:30:00,24.0,17.8,30.59,WNW,297,0.0,10.0,77,0.00,,,0.00,Wunderground v.1.15,2013-11-04 08:30:00,
2013-11-04 03:35:00,24.0,17.8,30.60,WNW,297,0.0,10.0,77,0.00,,,0.00,Wunderground v.1.15,2013-11-04 08:35:00,
2013-11-04 03:40:00,24.0,17.8,30.60,WNW,297,0.0,10.0,77,0.00,,,0.00,Wunderground v.1.15,2013-11-04 08:40:00,
2013-11-04 03:50:00,24.0,17.8,30.60,WNW,297,0.0,10.0,77,0.00,,,0.00,Wunderground v.1.15,2013-11-04 08:50:00,
2013-11-04 03:55:00,24.0,17.8,30.61,WNW,297,0.0,10.0,77,0.00,,,0.00,Wunderground v.1.15,2013-11-04 08:55:00,
2013-11-04 04:00:00,24.0,17.5,30.61,WNW,290,1.0,10.0,76,0.00,,,0.00,Wunderground v.1.15,2013-11-04 09:00:00,
2013-11-04 04:05:00,24.1,17.6,30.61,WNW,290,1.0,10.0,76,0.00,,,0.00,Wunderground v.1.15,2013-11-04 09:05:00,
2013-11-04 04:09:00,24.1,17.6,30.61,WNW,290,0.0,0.0,76,0.00,,,0.00,Wunderground v.1.15,2013-11-04 09:09:00,
2013-11-04 04:15:00,24.0,17.5,30.61,WNW,290,0.0,0.0,76,0.00,,,0.00,Wunderground v.1.15,2013-11-04 09:15:00,
2013-11-04 04:20:00,24.0,17.5,30.61,WNW,290,0.0,0.0,76,0.00,,,0.00,Wunderground v.1.15,2013-11-04 09:20:00,
2013-11-04 04:25:00,23.9,17.4,30.62,WNW,290,0.0,0.0,76,0.00,,,0.00,Wunderground v.1.15,2013-11-04 09:25:00,
2013-11-04 04:30:00,23.9,17.7,30.62,WNW,290,0.0,0.0,77,0.00,,,0.00,Wunderground v.1.15,2013-11-04 09:30:00,
2013-11-04 04:35:00,23.9,17.4,30.62,WNW,290,0.0,0.0,76,0.00,,,0.00,Wunderground v.1.15,2013-11-04 09:35:00,
2013-11-04 04:40:00,23.9,17.4,30.62,WNW,290,0.0,0.0,76,0.00,,,0.00,Wunderground v.1.15,2013-11-04 09:40:00,
2013-11-04 04:45:00,23.9,17.4,30.63,WNW,290,0.0,0.0,76,0.00,,,0.00,Wunderground v.1.15,2013-11-04 09:45:00,
2013-11-04 04:50:00,23.7,17.5,30.63,WNW,290,0.0,0.0,77,0.00,,,0.00,Wunderground v.1.15,2013-11-04 09:50:00,
2013-11-04 04:55:00,23.6,17.4,30.63,WNW,290,0.0,0.0,77,0.00,,,0.00,Wunderground v.1.15,2013-11-04 09:55:00,
2013-11-04 05:00:00,23.5,17.3,30.63,WNW,290,0.0,0.0,77,0.00,,,0.00,Wunderground v.1.15,2013-11-04 10:00:00,
2013-11-04 05:05:00,23.5,17.3,30.64,WNW,290,1.0,1.0,77,0.00,,,0.00,Wunderground v.1.15,2013-11-04 10:05:00,
2013-11-04 05:10:00,23.5,17.3,30.64,WNW,290,1.0,1.0,77,0.00,,,0.00,Wunderground v.1.15,2013-11-04 10:10:00,
2013-11-04 05:15:00,23.4,17.3,30.64,WNW,290,0.0,4.0,77,0.00,,,0.00,Wunderground v.1.15,2013-11-04 10:15:00,
2013-11-04 05:20:00,23.4,17.3,30.64,WNW,290,0.0,4.0,77,0.00,,,0.00,Wunderground v.1.15,2013-11-04 10:20:00,
2013-11-04 05:25:00,23.3,17.2,30.64,WNW,290,0.0,4.0,77,0.00,,,0.00,Wunderground v.1.15,2013-11-04 10:25:00,
2013-11-04 05:30:00,23.3,17.5,30.64,WNW,290,0.0,4.0,78,0.00,,,0.00,Wunderground v.1.15,2013-11-04 10:30:00,
2013-11-04 05:35:00,23.3,17.2,30.64,WNW,290,0.0,4.0,77,0.00,,,0.00,Wunderground v.1.15,2013-11-04 10:35:00,
2013-11-04 05:40:00,23.2,17.4,30.64,WNW,290,0.0,4.0,78,0.00,,,0.00,Wunderground v.1.15,2013-11-04 10:40:00,
2013-11-04 05:45:00,23.1,17.3,30.64,WNW,290,0.0,4.0,78,0.00,,,0.00,Wunderground v.1.15,2013-11-04 10:45:00,
2013-11-04 05:50:00,23.1,17.0,30.64,WNW,290,0.0,4.0,77,0.00,,,0.00,Wunderground v.1.15,2013-11-04 10:50:00,
2013-11-04 05:55:00,23.0,17.2,30.64,WNW,290,0.0,4.0,78,0.00,,,0.00,Wunderground v.1.15,2013-11-04 10:55:00,
2013-11-04 06:00:00,23.1,17.3,30.65,WNW,290,0.0,4.0,78,0.00,,,0.00,Wunderground v.1.15,2013-11-04 11:00:00,
2013-11-04 06:05:00,23.2,17.4,30.65,WNW,290,0.0,4.0,78,0.00,,,0.00,Wunderground v.1.15,2013-11-04 11:05:00,
2013-11-04 06:10:00,23.1,17.3,30.66,WNW,290,0.0,4.0,78,0.00,,,0.00,Wunderground v.1.15,2013-11-04 11:10:00,
2013-11-04 06:15:00,23.1,17.3,30.66,WNW,290,0.0,4.0,78,0.00,,,0.00,Wunderground v.1.15,2013-11-04 11:15:00,
2013-11-04 06:20:00,22.9,17.1,30.66,WNW,290,0.0,4.0,78,0.00,,,0.00,Wunderground v.1.15,2013-11-04 11:20:00,
2013-11-04 06:25:00,22.7,17.2,30.66,WNW,290,0.0,4.0,79,0.00,,,0.00,Wunderground v.1.15,2013-11-04 11:25:00,
2013-11-04 06:30:00,22.5,17.3,30.66,WNW,290,0.0,4.0,80,0.00,,,0.00,Wunderground v.1.15,2013-11-04 11:30:00,
2013-11-04 06:35:00,22.4,17.2,30.67,WNW,290,0.0,4.0,80,0.00,,,0.00,Wunderground v.1.15,2013-11-04 11:35:00,
2013-11-04 06:39:00,22.3,17.4,30.67,WNW,290,0.0,4.0,81,0.00,,,0.00,Wunderground v.1.15,2013-11-04 11:39:00,
2013-11-04 06:45:00,22.2,17.3,30.67,WNW,290,0.0,4.0,81,0.00,,,0.00,Wunderground v.1.15,2013-11-04 11:45:00,
2013-11-04 06:50:00,22.2,17.3,30.67,WNW,290,0.0,4.0,81,0.00,,,0.00,Wunderground v.1.15,2013-11-04 11:50:00,
2013-11-04 06:55:00,22.2,17.0,30.67,WNW,290,0.0,4.0,80,0.00,,,0.00,Wunderground v.1.15,2013-11-04 11:55:00,
2013-11-04 07:00:00,22.4,17.2,30.67,WNW,290,0.0,4.0,80,0.00,,,0.00,Wunderground v.1.15,2013-11-04 12:00:00,
2013-11-04 07:05:00,22.4,17.5,30.67,WNW,290,0.0,4.0,81,0.00,,,0.00,Wunderground v.1.15,2013-11-04 12:05:00,
2013-11-04 07:10:00,22.5,17.5,30.67,WNW,290,0.0,4.0,81,0.00,,,0.00,Wunderground v.1.15,2013-11-04 12:10:00,
2013-11-04 07:15:00,22.6,17.4,30.67,WNW,290,0.0,4.0,80,0.00,,,0.00,Wunderground v.1.15,2013-11-04 12:15:00,
2013-11-04 07:20:00,22.8,17.6,30.67,WNW,290,0.0,4.0,80,0.00,,,0.00,Wunderground v.1.15,2013-11-04 12:20:00,
2013-11-04 07:25:00,23.1,19.5,30.68,WNW,290,0.0,4.0,86,0.00,,,0.00,Wunderground v.1.15,2013-11-04 12:25:00,
2013-11-04 07:30:00,23.6,18.0,30.68,WNW,290,0.0,4.0,79,0.00,,,0.00,Wunderground v.1.15,2013-11-04 12:30:00,
2013-11-04 07:35:00,24.0,18.1,30.68,WNW,290,0.0,4.0,78,0.00,,,0.00,Wunderground v.1.15,2013-11-04 12:35:00,
2013-11-04 07:40:00,24.4,18.8,30.68,WNW,290,0.0,4.0,79,0.00,,,0.00,Wunderground v.1.15,2013-11-04 12:40:00,
2013-11-04 07:45:00,24.5,19.2,30.69,WNW,290,0.0,4.0,80,0.00,,,0.00,Wunderground v.1.15,2013-11-04 12:45:00,
2013-11-04 07:50:00,24.7,18.8,30.69,WNW,290,0.0,4.0,78,0.00,,,0.00,Wunderground v.1.15,2013-11-04 12:50:00,
2013-11-04 07:55:00,25.1,19.8,30.69,WNW,290,0.0,4.0,80,0.00,,,0.00,Wunderground v.1.15,2013-11-04 12:55:00,
2013-11-04 08:00:00,25.3,19.7,30.69,WNW,290,0.0,4.0,79,0.00,,,0.00,Wunderground v.1.15,2013-11-04 13:00:00,
2013-11-04 08:05:00,25.5,19.6,30.69,WNW,290,0.0,4.0,78,0.00,,,0.00,Wunderground v.1.15,2013-11-04 13:05:00,
2013-11-04 08:10:00,25.9,20.0,30.69,East,80,0.0,4.0,78,0.00,,,0.00,Wunderground v.1.15,2013-11-04 13:10:00,
2013-11-04 08:15:00,26.7,19.8,30.69,WNW,293,1.0,4.0,75,0.00,,,0.00,Wunderground v.1.15,2013-11-04 13:15:00,
2013-11-04 08:20:00,27.8,20.3,30.70,East,80,1.0,1.0,73,0.00,,,0.00,Wunderground v.1.15,2013-11-04 13:20:00,
2013-11-04 08:25:00,28.8,19.9,30.69,NNW,348,2.0,2.0,69,0.00,,,0.00,Wunderground v.1.15,2013-11-04 13:25:00,
2013-11-04 08:30:00,29.4,20.1,30.69,NNE,13,1.0,1.0,68,0.00,,,0.00,Wunderground v.1.15,2013-11-04 13:30:00,
2013-11-04 08:34:00,30.0,21.1,30.69,NNE,30,1.0,4.0,69,0.00,,,0.00,Wunderground v.1.15,2013-11-04 13:34:00,
2013-11-04 08:40:00,30.5,20.1,30.69,North,349,1.0,1.0,65,0.00,,,0.00,Wunderground v.1.15,2013-11-04 13:40:00,
2013-11-04 08:45:00,31.0,19.9,30.70,NNW,340,1.0,2.0,63,0.00,,,0.00,Wunderground v.1.15,2013-11-04 13:45:00,
2013-11-04 08:50:00,31.4,19.9,30.70,ENE,57,1.0,4.0,62,0.00,,,0.00,Wunderground v.1.15,2013-11-04 13:50:00,
2013-11-04 08:55:00,31.7,19.8,30.70,NNE,16,2.0,4.0,61,0.00,,,0.00,Wunderground v.1.15,2013-11-04 13:55:00,
2013-11-04 09:00:00,32.0,19.7,30.70,NNW,345,2.0,2.0,60,0.00,,,0.00,Wunderground v.1.15,2013-11-04 14:00:00,
2013-11-04 09:05:00,32.3,20.0,30.70,NNW,340,2.0,4.0,60,0.00,,,0.00,Wunderground v.1.15,2013-11-04 14:05:00,
2013-11-04 09:10:00,32.5,19.7,30.70,North,5,3.0,4.0,59,0.00,,,0.00,Wunderground v.1.15,2013-11-04 14:10:00,
2013-11-04 09:15:00,32.8,20.0,30.70,NE,40,3.0,4.0,59,0.00,,,0.00,Wunderground v.1.15,2013-11-04 14:15:00,
2013-11-04 09:20:00,33.1,19.9,30.70,NE,49,2.0,4.0,58,0.00,,,0.00,Wunderground v.1.15,2013-11-04 14:20:00,
2013-11-04 09:25:00,33.4,21.0,30.70,ENE,65,2.0,4.0,60,0.00,,,0.00,Wunderground v.1.15,2013-11-04 14:25:00,
2013-11-04 09:30:00,33.7,19.7,30.70,East,84,2.0,2.0,56,0.00,,,0.00,Wunderground v.1.15,2013-11-04 14:30:00,
2013-11-04 09:35:00,33.9,19.8,30.70,North,5,3.0,6.0,56,0.00,,,0.00,Wunderground v.1.15,2013-11-04 14:35:00,
2013-11-04 09:39:00,34.2,20.5,30.71,NNE,15,3.0,3.0,57,0.00,,,0.00,Wunderground v.1.15,2013-11-04 14:39:00,
2013-11-04 09:45:00,34.5,20.4,30.71,North,355,3.0,6.0,56,0.00,,,0.00,Wunderground v.1.15,2013-11-04 14:45:00,
2013-11-04 09:50:00,34.9,21.2,30.71,North,5,2.0,2.0,57,0.00,,,0.00,Wunderground v.1.15,2013-11-04 14:50:00,
2013-11-04 09:54:00,35.2,18.9,30.72,NE,45,2.0,4.0,51,0.00,,,0.00,Wunderground v.1.15,2013-11-04 14:54:00,
2013-11-04 10:00:00,35.5,20.5,30.71,NE,44,2.0,4.0,54,0.00,,,0.00,Wunderground v.1.15,2013-11-04 15:00:00,
2013-11-04 10:05:00,35.7,20.2,30.71,NE,49,2.0,4.0,53,0.00,,,0.00,Wunderground v.1.15,2013-11-04 15:05:00,
2013-11-04 10:10:00,36.1,21.0,30.71,North,5,1.0,1.0,54,0.00,,,0.00,Wunderground v.1.15,2013-11-04 15:10:00,
2013-11-04 10:15:00,36.4,20.4,30.71,NNW,342,2.0,2.0,52,0.00,,,0.00,Wunderground v.1.15,2013-11-04 15:15:00,
2013-11-04 10:20:00,36.5,19.6,30.70,ENE,75,3.0,3.0,50,0.00,,,0.00,Wunderground v.1.15,2013-11-04 15:20:00,
2013-11-04 10:25:00,36.5,20.5,30.70,NNW,335,2.0,4.0,52,0.00,,,0.00,Wunderground v.1.15,2013-11-04 15:25:00,
2013-11-04 10:30:00,36.5,19.6,30.70,ENE,74,3.0,5.0,50,0.00,,,0.00,Wunderground v.1.15,2013-11-04 15:30:00,
2013-11-04 10:35:00,36.8,20.3,30.70,NE,44,2.0,7.0,51,0.00,,,0.00,Wunderground v.1.15,2013-11-04 15:35:00,
2013-11-04 10:40:00,37.2,20.2,30.70,NE,41,2.0,6.0,50,0.00,,,0.00,Wunderground v.1.15,2013-11-04 15:40:00,
2013-11-04 10:50:00,37.3,19.4,30.71,NE,47,3.0,3.0,48,0.00,,,0.00,Wunderground v.1.15,2013-11-04 15:50:00,
2013-11-04 10:55:00,37.5,19.6,30.71,ESE,105,2.0,4.0,48,0.00,,,0.00,Wunderground v.1.15,2013-11-04 15:55:00,
2013-11-04 11:00:00,37.9,20.4,30.70,ESE,102,1.0,4.0,49,0.00,,,0.00,Wunderground v.1.15,2013-11-04 16:00:00,
2013-11-04 11:05:00,38.2,20.7,30.70,East,86,1.0,4.0,49,0.00,,,0.00,Wunderground v.1.15,2013-11-04 16:05:00,
2013-11-04 11:10:00,38.2,20.2,30.70,NW,319,2.0,2.0,48,0.00,,,0.00,Wunderground v.1.15,2013-11-04 16:10:00,
2013-11-04 11:15:00,38.3,19.3,30.70,East,80,2.0,4.0,46,0.00,,,0.00,Wunderground v.1.15,2013-11-04 16:15:00,
2013-11-04 11:20:00,38.2,19.7,30.70,NNE,28,2.0,2.0,47,0.00,,,0.00,Wunderground v.1.15,2013-11-04 16:20:00,
2013-11-04 11:25:00,38.3,20.3,30.69,NNE,33,1.0,5.0,48,0.00,,,0.00,Wunderground v.1.15,2013-11-04 16:25:00,
2013-11-04 11:30:00,38.3,19.3,30.69,NE,54,1.0,4.0,46,0.00,,,0.00,Wunderground v.1.15,2013-11-04 16:30:00,
2013-11-04 11:35:00,38.5,21.9,30.69,NNW,336,2.0,4.0,51,0.00,,,0.00,Wunderground v.1.15,2013-11-04 16:35:00,
2013-11-04 11:40:00,38.8,20.3,30.69,West,273,2.0,6.0,47,0.00,,,0.00,Wunderground v.1.15,2013-11-04 16:40:00,
2013-11-04 11:45:00,38.8,21.3,30.69,NE,35,2.0,6.0,49,0.00,,,0.00,Wunderground v.1.15,2013-11-04 16:45:00,
2013-11-04 11:50:00,38.9,21.3,30.69,North,355,2.0,2.0,49,0.00,,,0.00,Wunderground v.1.15,2013-11-04 16:50:00,
2013-11-04 11:55:00,39.1,20.0,30.69,ENE,65,1.0,4.0,46,0.00,,,0.00,Wunderground v.1.15,2013-11-04 16:55:00,
2013-11-04 12:00:00,39.1,20.5,30.69,NNW,346,1.0,4.0,47,0.00,,,0.00,Wunderground v.1.15,2013-11-04 17:00:00,
2013-11-04 12:05:00,39.4,19.3,30.68,ENE,57,1.0,5.0,44,0.00,,,0.00,Wunderground v.1.15,2013-11-04 17:05:00,
2013-11-04 12:10:00,39.5,20.4,30.68,NNW,344,1.0,1.0,46,0.00,,,0.00,Wunderground v.1.15,2013-11-04 17:10:00,
2013-11-04 12:15:00,39.8,20.2,30.68,North,360,1.0,2.0,45,0.00,,,0.00,Wunderground v.1.15,2013-11-04 17:15:00,
2013-11-04 12:20:00,39.8,19.1,30.68,NNE,28,1.0,4.0,43,0.00,,,0.00,Wunderground v.1.15,2013-11-04 17:20:00,
2013-11-04 12:25:00,39.6,20.0,30.68,NNW,342,2.0,4.0,45,0.00,,,0.00,Wunderground v.1.15,2013-11-04 17:25:00,
2013-11-04 12:30:00,39.9,19.7,30.68,WNW,297,2.0,4.0,44,0.00,,,0.00,Wunderground v.1.15,2013-11-04 17:30:00,
2013-11-04 12:35:00,40.2,20.0,30.68,NNW,336,1.0,4.0,44,0.00,,,0.00,Wunderground v.1.15,2013-11-04 17:35:00,
2013-11-04 12:40:00,40.5,18.0,30.68,ENE,60,0.0,4.0,40,0.00,,,0.00,Wunderground v.1.15,2013-11-04 17:40:00,
2013-11-04 12:45:00,40.7,19.4,30.68,East,82,0.0,4.0,42,0.00,,,0.00,Wunderground v.1.15,2013-11-04 17:45:00,
2013-11-04 12:50:00,41.1,20.8,30.68,NNW,331,1.0,1.0,44,0.00,,,0.00,Wunderground v.1.15,2013-11-04 17:50:00,
2013-11-04 12:55:00,41.4,20.0,30.68,NNW,341,1.0,4.0,42,0.00,,,0.00,Wunderground v.1.15,2013-11-04 17:55:00,
2013-11-04 13:05:00,41.6,18.4,30.67,ENE,73,1.0,4.0,39,0.00,,,0.00,Wunderground v.1.15,2013-11-04 18:05:00,
2013-11-04 13:10:00,41.6,19.6,30.67,East,82,1.0,1.0,41,0.00,,,0.00,Wunderground v.1.15,2013-11-04 18:10:00,
2013-11-04 13:15:00,41.3,19.9,30.67,ENE,57,1.0,2.0,42,0.00,,,0.00,Wunderground v.1.15,2013-11-04 18:15:00,
2013-11-04 13:20:00,41.2,20.9,30.68,NNW,347,1.0,1.0,44,0.00,,,0.00,Wunderground v.1.15,2013-11-04 18:20:00,
2013-11-04 13:25:00,41.3,19.9,30.68,NW,326,1.0,4.0,42,0.00,,,0.00,Wunderground v.1.15,2013-11-04 18:25:00,
2013-11-04 13:30:00,41.7,19.7,30.67,NNW,332,1.0,4.0,41,0.00,,,0.00,Wunderground v.1.15,2013-11-04 18:30:00,
2013-11-04 13:35:00,42.3,20.8,30.67,WNW,298,1.0,4.0,42,0.00,,,0.00,Wunderground v.1.15,2013-11-04 18:35:00,
2013-11-04 13:40:00,42.7,20.6,30.67,NW,312,1.0,4.0,41,0.00,,,0.00,Wunderground v.1.15,2013-11-04 18:40:00,
2013-11-04 13:45:00,42.7,20.0,30.67,NE,54,1.0,4.0,40,0.00,,,0.00,Wunderground v.1.15,2013-11-04 18:45:00,
2013-11-04 13:50:00,42.6,19.9,30.67,NNW,337,1.0,1.0,40,0.00,,,0.00,Wunderground v.1.15,2013-11-04 18:50:00,
2013-11-04 13:55:00,42.9,20.2,30.67,NNW,338,1.0,4.0,40,0.00,,,0.00,Wunderground v.1.15,2013-11-04 18:55:00,
2013-11-04 14:00:00,43.1,17.3,30.67,NE,46,0.0,4.0,35,0.00,,,0.00,Wunderground v.1.15,2013-11-04 19:00:00,
2013-11-04 14:05:00,42.8,18.9,30.67,NE,46,0.0,4.0,38,0.00,,,0.00,Wunderground v.1.15,2013-11-04 19:05:00,
2013-11-04 14:10:00,42.8,17.7,30.67,NE,53,0.0,4.0,36,0.00,,,0.00,Wunderground v.1.15,2013-11-04 19:10:00,
2013-11-04 14:15:00,42.5,18.0,30.67,NE,44,0.0,4.0,37,0.00,,,0.00,Wunderground v.1.15,2013-11-04 19:15:00,
2013-11-04 14:20:00,42.4,18.6,30.67,NE,34,0.0,4.0,38,0.00,,,0.00,Wunderground v.1.15,2013-11-04 19:20:00,
2013-11-04 14:25:00,42.4,16.6,30.67,East,90,1.0,4.0,35,0.00,,,0.00,Wunderground v.1.15,2013-11-04 19:25:00,
2013-11-04 14:30:00,42.2,19.0,30.67,East,90,0.0,4.0,39,0.00,,,0.00,Wunderground v.1.15,2013-11-04 19:30:00,
2013-11-04 14:35:00,42.3,18.5,30.67,ENE,65,0.0,4.0,38,0.00,,,0.00,Wunderground v.1.15,2013-11-04 19:35:00,
2013-11-04 14:40:00,42.2,17.8,30.67,ENE,65,0.0,4.0,37,0.00,,,0.00,Wunderground v.1.15,2013-11-04 19:40:00,
2013-11-04 14:45:00,41.8,17.4,30.67,NE,47,0.0,4.0,37,0.00,,,0.00,Wunderground v.1.15,2013-11-04 19:45:00,
2013-11-04 14:50:00,41.6,19.0,30.67,ENE,65,1.0,4.0,40,0.00,,,0.00,Wunderground v.1.15,2013-11-04 19:50:00,
2013-11-04 14:55:00,41.4,18.9,30.67,NE,42,1.0,4.0,40,0.00,,,0.00,Wunderground v.1.15,2013-11-04 19:55:00,
2013-11-04 15:00:00,41.1,18.6,30.67,NE,42,0.0,4.0,40,0.00,,,0.00,Wunderground v.1.15,2013-11-04 20:00:00,
2013-11-04 15:05:00,40.7,17.6,30.67,NE,42,0.0,4.0,39,0.00,,,0.00,Wunderground v.1.15,2013-11-04 20:05:00,
2013-11-04 15:10:00,40.4,18.5,30.67,NE,42,0.0,4.0,41,0.00,,,0.00,Wunderground v.1.15,2013-11-04 20:10:00,
2013-11-04 15:15:00,40.1,18.8,30.67,North,351,0.0,4.0,42,0.00,,,0.00,Wunderground v.1.15,2013-11-04 20:15:00,
2013-11-04 15:20:00,39.9,19.2,30.67,ENE,57,0.0,4.0,43,0.00,,,0.00,Wunderground v.1.15,2013-11-04 20:20:00,
2013-11-04 15:25:00,39.6,18.4,30.67,NE,40,0.0,4.0,42,0.00,,,0.00,Wunderground v.1.15,2013-11-04 20:25:00,
2013-11-04 15:30:00,39.3,18.1,30.67,NE,46,0.0,4.0,42,0.00,,,0.00,Wunderground v.1.15,2013-11-04 20:30:00,
2013-11-04 15:35:00,38.9,18.8,30.67,ENE,60,0.0,4.0,44,0.00,,,0.00,Wunderground v.1.15,2013-11-04 20:35:00,
2013-11-04 15:40:00,38.6,18.0,30.67,ENE,60,1.0,1.0,43,0.00,,,0.00,Wunderground v.1.15,2013-11-04 20:40:00,
2013-11-04 15:45:00,38.4,17.3,30.67,NE,53,0.0,4.0,42,0.00,,,0.00,Wunderground v.1.15,2013-11-04 20:45:00,
2013-11-04 15:50:00,38.2,17.6,30.67,NE,47,0.0,4.0,43,0.00,,,0.00,Wunderground v.1.15,2013-11-04 20:50:00,
2013-11-04 15:55:00,38.1,17.5,30.67,NE,49,0.0,4.0,43,0.00,,,0.00,Wunderground v.1.15,2013-11-04 20:55:00,
2013-11-04 16:00:00,38.1,18.6,30.67,NE,49,0.0,4.0,45,0.00,,,0.00,Wunderground v.1.15,2013-11-04 21:00:00,
2013-11-04 16:05:00,38.0,17.5,30.67,NE,52,0.0,4.0,43,0.00,,,0.00,Wunderground v.1.15,2013-11-04 21:05:00,
2013-11-04 16:15:00,37.9,19.4,30.67,NNE,31,0.0,4.0,47,0.00,,,0.00,Wunderground v.1.15,2013-11-04 21:15:00,
2013-11-04 16:20:00,37.7,19.3,30.67,NNE,31,0.0,4.0,47,0.00,,,0.00,Wunderground v.1.15,2013-11-04 21:20:00,
2013-11-04 16:25:00,37.6,18.7,30.68,NNE,31,0.0,4.0,46,0.00,,,0.00,Wunderground v.1.15,2013-11-04 21:25:00,
2013-11-04 16:30:00,37.3,18.4,30.68,NNE,31,0.0,4.0,46,0.00,,,0.00,Wunderground v.1.15,2013-11-04 21:30:00,
2013-11-04 16:35:00,37.0,17.6,30.68,NNE,31,0.0,4.0,45,0.00,,,0.00,Wunderground v.1.15,2013-11-04 21:35:00,
2013-11-04 16:40:00,36.6,17.7,30.68,NNE,31,0.0,4.0,46,0.00,,,0.00,Wunderground v.1.15,2013-11-04 21:40:00,
2013-11-04 16:45:00,36.2,17.4,30.68,NNE,31,0.0,4.0,46,0.00,,,0.00,Wunderground v.1.15,2013-11-04 21:45:00,
2013-11-04 16:50:00,35.8,16.5,30.68,NNE,31,0.0,4.0,45,0.00,,,0.00,Wunderground v.1.15,2013-11-04 21:50:00,
2013-11-04 16:55:00,35.3,18.0,30.68,NNE,31,0.0,4.0,49,0.00,,,0.00,Wunderground v.1.15,2013-11-04 21:55:00,
2013-11-04 17:00:00,34.7,17.9,30.68,NNE,31,0.0,4.0,50,0.00,,,0.00,Wunderground v.1.15,2013-11-04 22:00:00,
2013-11-04 17:05:00,34.2,17.0,30.68,NNE,31,0.0,4.0,49,0.00,,,0.00,Wunderground v.1.15,2013-11-04 22:05:00,
2013-11-04 17:10:00,33.8,18.0,30.68,NNE,31,0.0,4.0,52,0.00,,,0.00,Wunderground v.1.15,2013-11-04 22:10:00,
2013-11-04 17:15:00,33.4,17.2,30.68,NNE,31,0.0,4.0,51,0.00,,,0.00,Wunderground v.1.15,2013-11-04 22:15:00,
2013-11-04 17:20:00,33.1,17.8,30.69,NNE,31,0.0,4.0,53,0.00,,,0.00,Wunderground v.1.15,2013-11-04 22:20:00,
2013-11-04 17:25:00,32.8,17.5,30.69,NNE,31,0.0,4.0,53,0.00,,,0.00,Wunderground v.1.15,2013-11-04 22:25:00,
2013-11-04 17:30:00,32.4,18.0,30.69,NNE,31,0.0,4.0,55,0.00,,,0.00,Wunderground v.1.15,2013-11-04 22:30:00,
2013-11-04 17:35:00,31.8,18.7,30.68,NNE,31,0.0,4.0,58,0.00,,,0.00,Wunderground v.1.15,2013-11-04 22:35:00,
2013-11-04 17:40:00,31.2,18.1,30.68,NNE,31,0.0,4.0,58,0.00,,,0.00,Wunderground v.1.15,2013-11-04 22:40:00,
2013-11-04 17:45:00,30.7,17.7,30.69,NNE,31,0.0,4.0,58,0.00,,,0.00,Wunderground v.1.15,2013-11-04 22:45:00,
2013-11-04 17:49:00,30.4,17.8,30.69,NNE,31,0.0,4.0,59,0.00,,,0.00,Wunderground v.1.15,2013-11-04 22:49:00,
2013-11-04 17:55:00,30.1,17.5,30.69,NNE,31,0.0,4.0,59,0.00,,,0.00,Wunderground v.1.15,2013-11-04 22:55:00,
2013-11-04 18:00:00,30.0,17.4,30.69,NNE,31,0.0,4.0,59,0.00,,,0.00,Wunderground v.1.15,2013-11-04 23:00:00,
2013-11-04 18:05:00,29.9,18.1,30.69,NNE,31,0.0,4.0,61,0.00,,,0.00,Wunderground v.1.15,2013-11-04 23:05:00,
2013-11-04 18:10:00,29.6,18.2,30.69,NNE,31,0.0,4.0,62,0.00,,,0.00,Wunderground v.1.15,2013-11-04 23:10:00,
2013-11-04 18:15:00,29.3,17.5,30.69,NNE,31,0.0,4.0,61,0.00,,,0.00,Wunderground v.1.15,2013-11-04 23:15:00,
2013-11-04 18:20:00,29.1,17.7,30.69,NNE,31,0.0,4.0,62,0.00,,,0.00,Wunderground v.1.15,2013-11-04 23:20:00,
2013-11-04 18:25:00,28.8,18.5,30.68,NNE,31,0.0,4.0,65,0.00,,,0.00,Wunderground v.1.15,2013-11-04 23:25:00,
2013-11-04 18:30:00,28.5,17.9,30.69,NNE,31,0.0,4.0,64,0.00,,,0.00,Wunderground v.1.15,2013-11-04 23:30:00,
2013-11-04 18:35:00,28.2,17.2,30.68,NNE,31,0.0,4.0,63,0.00,,,0.00,Wunderground v.1.15,2013-11-04 23:35:00,
2013-11-04 18:40:00,28.1,17.5,30.68,NNE,31,0.0,4.0,64,0.00,,,0.00,Wunderground v.1.15,2013-11-04 23:40:00,
2013-11-04 18:45:00,27.9,17.3,30.68,NNE,31,0.0,4.0,64,0.00,,,0.00,Wunderground v.1.15,2013-11-04 23:45:00,
2013-11-04 18:50:00,27.8,16.8,30.69,NNE,31,0.0,4.0,63,0.00,,,0.00,Wunderground v.1.15,2013-11-04 23:50:00,
2013-11-04 18:55:00,27.8,16.8,30.69,NNE,31,0.0,4.0,63,0.00,,,0.00,Wunderground v.1.15,2013-11-04 23:55:00,
2013-11-04 19:00:00,27.8,17.6,30.69,NNE,31,0.0,4.0,65,0.00,,,0.00,Wunderground v.1.15,2013-11-05 00:00:00,
2013-11-04 19:05:00,27.7,17.8,30.69,NNE,31,0.0,4.0,66,0.00,,,0.00,Wunderground v.1.15,2013-11-05 00:05:00,
2013-11-04 19:10:00,27.6,17.4,30.69,NNE,31,0.0,4.0,65,0.00,,,0.00,Wunderground v.1.15,2013-11-05 00:10:00,
2013-11-04 19:15:00,27.5,16.9,30.68,NNE,31,0.0,4.0,64,0.00,,,0.00,Wunderground v.1.15,2013-11-05 00:15:00,
2013-11-04 19:20:00,27.4,17.2,30.68,NNE,31,0.0,4.0,65,0.00,,,0.00,Wunderground v.1.15,2013-11-05 00:20:00,
2013-11-04 19:25:00,27.3,17.1,30.68,NNE,31,0.0,4.0,65,0.00,,,0.00,Wunderground v.1.15,2013-11-05 00:25:00,
2013-11-04 19:29:00,27.2,17.0,30.68,NNE,31,0.0,4.0,65,0.00,,,0.00,Wunderground v.1.15,2013-11-05 00:29:00,
2013-11-04 19:35:00,27.1,17.6,30.68,NNE,31,0.0,4.0,67,0.00,,,0.00,Wunderground v.1.15,2013-11-05 00:35:00,
2013-11-04 19:40:00,27.0,17.1,30.68,NNE,31,0.0,4.0,66,0.00,,,0.00,Wunderground v.1.15,2013-11-05 00:40:00,
2013-11-04 19:45:00,26.9,17.0,30.68,NNE,31,0.0,4.0,66,0.00,,,0.00,Wunderground v.1.15,2013-11-05 00:45:00,
2013-11-04 19:55:00,26.6,17.5,30.68,NNE,31,0.0,4.0,68,0.00,,,0.00,Wunderground v.1.15,2013-11-05 00:55:00,
2013-11-04 20:00:00,26.4,17.3,30.68,NNE,31,0.0,4.0,68,0.00,,,0.00,Wunderground v.1.15,2013-11-05 01:00:00,
2013-11-04 20:05:00,26.2,17.1,30.68,NNE,31,0.0,4.0,68,0.00,,,0.00,Wunderground v.1.15,2013-11-05 01:05:00,
2013-11-04 20:10:00,26.0,17.2,30.69,NNE,31,0.0,4.0,69,0.00,,,0.00,Wunderground v.1.15,2013-11-05 01:10:00,
2013-11-04 20:15:00,25.9,17.5,30.69,NNE,31,0.0,4.0,70,0.00,,,0.00,Wunderground v.1.15,2013-11-05 01:15:00,
2013-11-04 20:20:00,25.8,17.4,30.69,NNE,31,0.0,4.0,70,0.00,,,0.00,Wunderground v.1.15,2013-11-05 01:20:00,
2013-11-04 20:25:00,25.7,17.6,30.69,NNE,31,0.0,4.0,71,0.00,,,0.00,Wunderground v.1.15,2013-11-05 01:25:00,
2013-11-04 20:30:00,25.5,17.7,30.70,NNE,31,0.0,4.0,72,0.00,,,0.00,Wunderground v.1.15,2013-11-05 01:30:00,
2013-11-04 20:40:00,25.3,18.2,30.70,NNE,31,0.0,4.0,74,0.00,,,0.00,Wunderground v.1.15,2013-11-05 01:40:00,
2013-11-04 20:45:00,25.2,18.1,30.70,NNE,31,0.0,4.0,74,0.00,,,0.00,Wunderground v.1.15,2013-11-05 01:45:00,
2013-11-04 20:50:00,25.2,18.1,30.70,NNE,31,0.0,4.0,74,0.00,,,0.00,Wunderground v.1.15,2013-11-05 01:50:00,
2013-11-04 20:55:00,25.2,18.1,30.70,NNE,31,0.0,4.0,74,0.00,,,0.00,Wunderground v.1.15,2013-11-05 01:55:00,
2013-11-04 21:00:00,25.2,18.4,30.70,NNE,31,0.0,4.0,75,0.00,,,0.00,Wunderground v.1.15,2013-11-05 02:00:00,
2013-11-04 21:05:00,25.3,18.2,30.70,NNE,31,0.0,4.0,74,0.00,,,0.00,Wunderground v.1.15,2013-11-05 02:05:00,
2013-11-04 21:10:00,25.4,18.6,30.70,NNE,31,0.0,4.0,75,0.00,,,0.00,Wunderground v.1.15,2013-11-05 02:10:00,
2013-11-04 21:15:00,25.5,19.3,30.70,NNE,31,0.0,4.0,77,0.00,,,0.00,Wunderground v.1.15,2013-11-05 02:15:00,
2013-11-04 21:25:00,25.5,18.7,30.70,NNE,31,0.0,4.0,75,0.00,,,0.00,Wunderground v.1.15,2013-11-05 02:25:00,
2013-11-04 21:30:00,25.4,18.6,30.70,NNE,31,0.0,4.0,75,0.00,,,0.00,Wunderground v.1.15,2013-11-05 02:30:00,
2013-11-04 21:35:00,25.5,19.0,30.70,NNE,31,0.0,4.0,76,0.00,,,0.00,Wunderground v.1.15,2013-11-05 02:35:00,
2013-11-04 21:40:00,25.4,19.2,30.70,NNE,31,0.0,4.0,77,0.00,,,0.00,Wunderground v.1.15,2013-11-05 02:40:00,
2013-11-04 21:45:00,25.4,18.9,30.69,NNE,31,0.0,4.0,76,0.00,,,0.00,Wunderground v.1.15,2013-11-05 02:45:00,
2013-11-04 21:50:00,25.6,18.8,30.69,NNE,31,0.0,4.0,75,0.00,,,0.00,Wunderground v.1.15,2013-11-05 02:50:00,
2013-11-04 21:55:00,25.6,19.1,30.70,NNE,31,0.0,4.0,76,0.00,,,0.00,Wunderground v.1.15,2013-11-05 02:55:00,
2013-11-04 22:00:00,25.5,18.4,30.69,NNE,31,0.0,4.0,74,0.00,,,0.00,Wunderground v.1.15,2013-11-05 03:00:00,
2013-11-04 22:04:00,25.4,17.6,30.69,NNE,31,0.0,4.0,72,0.00,,,0.00,Wunderground v.1.15,2013-11-05 03:04:00,
2013-11-04 22:10:00,25.4,17.6,30.69,NNE,31,0.0,4.0,72,0.00,,,0.00,Wunderground v.1.15,2013-11-05 03:10:00,
2013-11-04 22:15:00,25.5,18.0,30.69,NNE,31,0.0,4.0,73,0.00,,,0.00,Wunderground v.1.15,2013-11-05 03:15:00,
2013-11-04 22:20:00,25.6,18.5,30.69,NNE,31,0.0,4.0,74,0.00,,,0.00,Wunderground v.1.15,2013-11-05 03:20:00,
2013-11-04 22:25:00,25.6,18.5,30.69,NNE,31,0.0,4.0,74,0.00,,,0.00,Wunderground v.1.15,2013-11-05 03:25:00,
2013-11-04 22:35:00,25.8,18.7,30.70,NNE,31,0.0,4.0,74,0.00,,,0.00,Wunderground v.1.15,2013-11-05 03:35:00,
2013-11-04 22:40:00,25.9,19.1,30.70,NNE,31,0.0,4.0,75,0.00,,,0.00,Wunderground v.1.15,2013-11-05 03:40:00,
2013-11-04 22:45:00,26.0,19.5,30.70,NNE,31,0.0,4.0,76,0.00,,,0.00,Wunderground v.1.15,2013-11-05 03:45:00,
2013-11-04 22:50:00,26.0,19.5,30.70,NNE,31,0.0,4.0,76,0.00,,,0.00,Wunderground v.1.15,2013-11-05 03:50:00,
2013-11-04 22:55:00,26.1,19.6,30.70,NNE,31,0.0,4.0,76,0.00,,,0.00,Wunderground v.1.15,2013-11-05 03:55:00,
2013-11-04 23:00:00,26.2,20.0,30.70,NNE,31,0.0,4.0,77,0.00,,,0.00,Wunderground v.1.15,2013-11-05 04:00:00,
2013-11-04 23:05:00,26.2,19.4,30.69,NNE,31,0.0,4.0,75,0.00,,,0.00,Wunderground v.1.15,2013-11-05 04:05:00,
2013-11-04 23:15:00,26.5,20.0,30.70,NNE,31,0.0,4.0,76,0.00,,,0.00,Wunderground v.1.15,2013-11-05 04:15:00,
2013-11-04 23:25:00,26.8,20.2,30.70,NNE,31,0.0,4.0,76,0.00,,,0.00,Wunderground v.1.15,2013-11-05 04:25:00,
2013-11-04 23:30:00,26.9,20.0,30.69,NNE,31,0.0,4.0,75,0.00,,,0.00,Wunderground v.1.15,2013-11-05 04:30:00,
2013-11-04 23:35:00,27.1,20.5,30.69,NNE,31,0.0,4.0,76,0.00,,,0.00,Wunderground v.1.15,2013-11-05 04:35:00,
2013-11-04 23:40:00,27.2,20.6,30.70,NNE,31,0.0,4.0,76,0.00,,,0.00,Wunderground v.1.15,2013-11-05 04:40:00,
2013-11-04 23:50:00,27.3,20.4,30.70,NNE,31,0.0,4.0,75,0.00,,,0.00,Wunderground v.1.15,2013-11-05 04:50:00,
2013-11-04 23:55:00,27.3,20.4,30.70,NNE,31,0.0,4.0,75,0.00,,,0.00,Wunderground v.1.15,2013-11-05 04:55:00,